SCP
1 1 0 0 0 0 0 0 0 0 0 0 0 0 0 0 0 0 0 0 0 0
0 0 0 0 0 0 0 0 0 0 0 0 0 0 0 0 0 0 0 0 0 0
0 0 0 0 0 0 0 0 0 0 0 0 0 0 0 0 0 0 0 0 0 0
0 0 0 0 0 0 0 0 0 0 0 0 0 0 0 0 0 0 0 0 0 0
0 0 0 0 0 0 0 0 0 0 0 0 0 0 0 0 0 0 0 0 0 0
0 0 0 0 0 0 0 0 0 0 0 0 0 0 0 0 0 0 0 0 0 0
0 0 0 0 0 0 0 0 0 0 0 0 0 0 0 0 0 0 0 0 0 0
0 0 0 0 0 0 0 0 0 0 0 0 0 0 0 0 0 0 0 0 0 0
0 0 0 0 0 0 0 0 0 0 0 0 0 0 0 0 0 0 0 0 0 0
0 0 0 0 0 0 0 0 0 0 0 0 0 0 0 0 0 0 0 0 0 0
0 0 0 0 0 0 0 0 0 0 0 0 0 0 0 0 0 0 0 0 0 0
0 0 0 0 0 0 0 0 0 0 0 0 0 0 0 0 0 0 0 0 0 0
0 0 0 0 0 0 0 0 0 0 0 0 0 0 0 0 0 0 0 0 0 0
0 0 0 0 0 0 0 0 0 0 0 0 0 0 0 0 0 0 0 0 0 0
Wind_Speed_500mb
72 69 62 62 46 26 34 47 49 58 67 83 87 89 97 99 94 91 87 84 78 71
66 70 67 69 49 34 42 53 39 49 56 51 57 72 83 94 94 85 84 79 76 72
58 66 64 63 59 54 51 51 47 45 28 24 36 37 73 82 82 82 77 76 72 72
60 57 51 42 40 37 41 46 56 43 33 34 43 38 48 76 65 79 78 77 72 64
58 58 50 42 30 33 28 26 26 32 32 32 53 56 61 57 72 54 77 79 76 71
50 52 47 38 31 28 21 23 24 27 39 54 38 34 44 47 53 79 70 64 78 76
38 36 36 38 35 29 29 27 26 33 31 44 47 47 34 35 40 49 59 57 68 77
29 30 30 29 31 31 34 33 31 29 34 33 48 53 50 48 46 36 41 47 48 60
21 18 19 18 19 21 29 26 37 37 36 45 49 47 49 55 52 48 46 42 44 45
31 22 14 10 10 11 10 13 28 26 42 52 46 49 49 49 55 58 55 57 52 55
39 33 22 11 5 11 12 14 12 18 23 27 38 45 40 45 44 46 59 51 50 45
39 34 28 25 18 7 6 19 22 18 17 21 21 30 35 39 41 39 41 41 55 56
37 33 31 26 20 15 10 2 8 18 25 30 29 30 32 36 39 41 42 43 42 46
38 36 31 25 18 14 11 10 6 2 10 17 25 32 36 37 38 39 39 41 44 44
Wind_Direction_500mb
217 215 217 212 205 226 250 236 223 226 221 217 208 210 214 211 211 213 214 215 214 220
216 217 214 209 208 210 217 226 224 219 217 227 241 229 217 213 212 213 219 220 220 221
215 215 218 213 209 209 214 208 198 195 207 227 220 260 235 221 219 220 218 219 224 225
202 206 207 210 205 209 202 209 204 203 212 221 233 218 230 241 237 223 223 223 224 224
191 190 189 194 207 201 211 221 216 212 207 231 229 227 232 234 248 245 237 228 228 226
149 167 176 181 191 202 203 220 218 222 214 217 230 231 234 244 242 237 244 243 235 232
134 147 165 171 178 190 193 216 225 233 228 221 229 233 232 251 241 237 245 247 254 247
131 149 163 172 178 194 212 228 230 235 230 250 226 235 238 233 242 233 243 238 236 241
105 122 132 150 187 203 209 207 216 216 230 218 232 241 237 227 237 236 246 247 256 252
81 82 91 124 162 181 194 206 226 224 232 234 235 241 237 232 236 235 243 241 249 243
73 77 79 90 140 210 227 220 209 208 220 222 230 236 242 238 245 239 232 233 241 238
68 70 73 73 79 99 237 249 250 245 235 236 232 232 234 240 241 242 242 237 232 237
59 58 60 60 60 60 65 84 232 247 254 251 247 244 243 238 235 237 235 233 232 232
50 50 50 50 53 53 50 47 39 267 244 244 243 245 244 245 242 242 242 242 239 237
Wind_Speed_850mb
72 69 62 62 46 26 34 47 49 58 67 83 87 89 97 99 94 91 87 84 78 71
66 70 67 69 49 34 42 53 39 49 56 51 57 72 83 94 94 85 84 79 76 72
58 66 64 63 59 54 51 51 47 45 28 24 36 37 73 82 82 82 77 76 72 72
60 57 51 42 40 37 41 46 56 43 33 34 43 38 48 76 65 79 78 77 72 64
58 58 50 42 30 33 28 26 26 32 32 32 53 56 61 57 72 54 77 79 76 71
50 52 47 38 31 28 21 23 24 27 39 54 38 34 44 47 53 79 70 64 78 76
38 36 36 38 35 29 29 27 26 33 31 44 47 47 34 35 40 49 59 57 68 77
29 30 30 29 31 31 34 33 31 29 34 33 48 53 50 48 46 36 41 47 48 60
21 18 19 18 19 21 29 26 37 37 36 45 49 47 49 55 52 48 46 42 44 45
31 22 14 10 10 11 10 13 28 26 42 52 46 49 49 49 55 58 55 57 52 55
39 33 22 11 5 11 12 14 12 18 23 27 38 45 40 45 44 46 59 51 50 45
39 34 28 25 18 7 6 19 22 18 17 21 21 30 35 39 41 39 41 41 55 56
37 33 31 26 20 15 10 2 8 18 25 30 29 30 32 36 39 41 42 43 42 46
38 36 31 25 18 14 11 10 6 2 10 17 25 32 36 37 38 39 39 41 44 44
Wind_Direction_850mb
217 215 217 212 205 226 250 236 223 226 221 217 208 210 214 211 211 213 214 215 214 220
216 217 214 209 208 210 217 226 224 219 217 227 241 229 217 213 212 213 219 220 220 221
215 215 218 213 209 209 214 208 198 195 207 227 220 260 235 221 219 220 218 219 224 225
202 206 207 210 205 209 202 209 204 203 212 221 233 218 230 241 237 223 223 223 224 224
191 190 189 194 207 201 211 221 216 212 207 231 229 227 232 234 248 245 237 228 228 226
149 167 176 181 191 202 203 220 218 222 214 217 230 231 234 244 242 237 244 243 235 232
134 147 165 171 178 190 193 216 225 233 228 221 229 233 232 251 241 237 245 247 254 247
131 149 163 172 178 194 212 228 230 235 230 250 226 235 238 233 242 233 243 238 236 241
105 122 132 150 187 203 209 207 216 216 230 218 232 241 237 227 237 236 246 247 256 252
81 82 91 124 162 181 194 206 226 224 232 234 235 241 237 232 236 235 243 241 249 243
73 77 79 90 140 210 227 220 209 208 220 222 230 236 242 238 245 239 232 233 241 238
68 70 73 73 79 99 237 249 250 245 235 236 232 232 234 240 241 242 242 237 232 237
59 58 60 60 60 60 65 84 232 247 254 251 247 244 243 238 235 237 235 233 232 232
50 50 50 50 53 53 50 47 39 267 244 244 243 245 244 245 242 242 242 242 239 237